#timestamp,LO_Frequency,Hit,StdDev 
1540807215.3,286046999.2,N
1540807235.1,286046997.1,N
1540807255.9,286046997.8,N
1540807275.7,286046996.0,N
1540807295.5,286046996.4,N
1540807315.4,286046994.3,Y
1540807335.2,286046994.6,P
1540807355.0,286046994.0,N
1540807355.9,286046994.0,N
1540807375.8,286046995.5,N
1540807395.6,286046996.0,N
1540807415.5,286046995.1,N
1540807435.3,286046997.8,N
1540807455.1,286046997.6,N
1540807475.9,286046995.1,N
1540807495.7,286046993.7,Y
1540807515.5,286046997.1,P
1540807535.4,286046996.5,P
1540807555.2,286046996.5,P
1540807575.1,286046997.5,Y
1540807576.0,286046997.5,P
1540807595.8,286047000.4,N
1540807615.6,286047000.5,N
1540807635.5,286047000.0,N
1540807655.3,286046999.0,N
1540807675.2,286046999.1,N
1540807695.9,286046999.1,N
1540807715.7,286046998.7,N
1540807735.6,286046998.5,N
1540807755.4,286046996.5,N
1540807775.2,286046998.6,N
1540807795.1,286047000.6,N
1540807796.0,286047000.6,N
1540807815.8,286047000.5,N
1540807835.7,286047000.8,N
1540807855.5,286047001.9,N
1540807875.3,286047001.3,N
1540807895.2,286047003.5,N
1540807915.9,286047003.1,N
1540807935.7,286047002.9,N
1540807955.6,286047003.4,N
1540807975.4,286047003.1,N
1540807995.2,286047003.6,N
1540808015.1,286047004.0,N
1540808016.0,286047004.0,N
1540808035.8,286047001.4,N
1540808055.7,286047002.3,N
1540808075.5,286047004.0,N
1540808095.3,286047003.5,N
1540808115.2,286047002.5,N
1540808135.0,286046999.9,N
1540808135.9,286046999.9,N
1540808155.8,286047000.4,N
1540808175.6,286046998.8,N
1540808195.4,286046998.8,N
1540808215.3,286046996.7,N
1540808235.1,286046999.6,N
1540808255.8,286046997.8,N
1540808275.7,286046997.7,N
1540808295.5,286046999.1,N
1540808315.4,286047000.6,N
1540808335.2,286047000.2,N
1540808355.0,286047002.8,N
1540808355.9,286047002.8,N
1540808375.8,286046998.3,N
1540808395.6,286046998.9,N
1540808415.4,286046998.6,N
1540808435.3,286046998.5,N
1540808455.1,286046998.1,N
1540808475.9,286046998.4,N
1540808495.7,286046999.4,N
1540808515.5,286047000.9,N
1540808535.4,286046998.1,N
1540808555.2,286047000.6,N
1540808575.0,286046998.5,N
1540808575.9,286046998.5,N
1540808595.8,286046999.2,N
1540808615.6,286046997.1,N
1540808635.5,286046996.5,N
1540808655.3,286046997.4,N
1540808675.1,286046999.6,N
1540808695.9,286046999.6,N
1540808715.7,286046999.5,N
1540808735.5,286046998.9,N
1540808755.4,286046999.0,N
1540808775.2,286046998.4,N
1540808795.1,286047000.4,N
1540808796.0,286047000.4,N
1540808815.8,286047000.9,N
1540808835.6,286047002.3,N
1540808855.5,286047002.4,N
1540808875.3,286047000.4,N
1540808895.1,286047002.3,N
1540808915.9,286047001.0,N
1540808935.7,286047000.7,N
1540808955.6,286047001.0,N
1540808975.4,286047000.8,N
1540808995.2,286047000.5,N
1540809015.1,286047002.8,N
1540809016.0,286047002.8,N
1540809035.8,286047000.2,N
1540809055.7,286047000.3,N
1540809075.5,286047001.2,N
1540809095.3,286046996.5,N
1540809115.2,286046997.7,N
1540809135.9,286046995.3,N
1540809155.7,286046994.1,Y
1540809175.6,286046994.2,P
1540809195.4,286046994.6,N
1540809215.3,286046992.4,N
1540809235.1,286046992.8,N
1540809236.0,286046992.8,N
1540809255.8,286046990.3,Y
1540809275.7,286046997.3,P
1540809295.5,286046997.1,N
1540809315.3,286046996.2,N
1540809335.2,286046997.7,N
1540809355.0,286046999.1,N
1540809355.9,286046999.1,N
1540809375.8,286046999.3,N
1540809395.6,286046998.3,N
1540809415.4,286046996.5,N
1540809435.3,286046996.8,N
1540809455.1,286046997.4,N
1540809475.9,286046995.3,Y
1540809495.7,286046999.3,P
1540809515.5,286046998.7,N
1540809535.4,286046998.6,N
1540809555.2,286046997.1,Y
1540809575.0,286046998.3,P
1540809575.9,286046998.3,P
1540809595.8,286047001.2,P
1540809615.6,286047000.5,N
1540809635.5,286047000.7,N
1540809655.3,286047000.2,N
1540809675.1,286047001.1,N
1540809695.9,286047000.6,N
1540809715.7,286046998.9,N
1540809735.5,286046998.4,N
1540809755.4,286046998.1,N
1540809775.2,286046999.7,N
1540809795.1,286046998.7,N
1540809796.0,286046998.7,N
1540809815.8,286047000.8,N
1540809835.6,286046998.3,N
1540809855.5,286046998.4,N
1540809875.3,286046999.0,N
1540809895.1,286046999.5,N
1540809915.9,286046998.7,N
1540809935.7,286046998.1,N
1540809955.6,286046998.6,N
1540809975.4,286046998.3,N
1540809995.2,286046998.3,N
1540810015.1,286046998.2,N
1540810016.0,286046998.2,N
1540810035.8,286046998.3,N
1540810055.6,286046999.4,N
1540810075.5,286046998.1,N
1540810095.3,286046998.2,N
1540810115.2,286046996.6,Y
1540810135.9,286046999.1,P
1540810155.7,286046999.4,P
1540810175.6,286046999.6,N
1540810195.4,286046996.7,Y
1540810215.3,286046999.6,P
1540810235.1,286046999.1,P
1540810236.0,286046999.1,P
1540810255.8,286046998.5,Y
1540810275.7,286047002.8,P
1540810295.5,286047002.6,N
1540810315.3,286047001.4,N
1540810335.2,286047001.5,N
1540810355.0,286047001.9,N
1540810355.9,286047001.9,N
1540810375.8,286047001.4,N
1540810395.6,286047001.9,N
1540810415.4,286047002.5,N
1540810435.3,286047000.1,N
1540810455.1,286046998.6,N
1540810475.8,286046999.6,N
1540810495.7,286046997.8,N
1540810515.5,286046996.6,N
1540810535.4,286047001.0,N
1540810555.2,286046999.5,N
1540810575.0,286046997.2,N
1540810575.9,286046997.2,N
1540810595.8,286046997.0,N
1540810615.6,286046997.2,N
1540810635.4,286046999.2,N
1540810655.3,286046997.2,N
1540810675.1,286046999.1,N
1540810695.9,286046998.8,N
1540810715.7,286046998.5,N
1540810735.5,286047000.9,N
1540810755.4,286046998.1,N
1540810775.2,286046998.9,N
1540810795.0,286046996.9,N
1540810795.9,286046996.9,N
